| time (UTC) | temp C | wind direction | speed KPH | gust KPH | rain 1hr cm | rain 24hr cm | rain mn cm | humidity % | barometer mb |
| 20260507171547 | 8 | 295 | 3.2 | 27.4 | 0.00 | 0.00 | 0.00 | 58 | 1005.0 |
| 20260507170046 | 8 | 304 | 0.0 | 24.1 | 0.00 | 0.00 | 0.00 | 61 | 1005.1 |
| 20260507164603 | 8 | 333 | 1.6 | 24.1 | 0.00 | 0.00 | 0.00 | 60 | 1005.2 |
| 20260507163040 | 7 | 329 | 1.6 | 19.3 | 0.00 | 0.00 | 0.00 | 62 | 1005.4 |
| 20260507161550 | 7 | 273 | 1.6 | 20.9 | 0.00 | 0.00 | 0.00 | 64 | 1005.7 |
| 20260507160036 | 7 | 282 | 0.0 | 19.3 | 0.00 | 0.00 | 0.00 | 72 | 1005.8 |
| 20260507154532 | 6 | 280 | 0.0 | 25.7 | 0.00 | 0.00 | 0.00 | 70 | 1005.7 |
| 20260507153011 | 6 | 250 | 0.0 | 20.9 | 0.00 | 0.00 | 0.00 | 68 | 1005.9 |
| 20260507151510 | 6 | 292 | 0.0 | 14.5 | 0.00 | 0.00 | 0.00 | 71 | 1005.9 |
| 20260507144555 | 6 | 270 | 0.0 | 9.7 | 0.00 | 0.00 | 0.00 | 80 | 1005.7 |
| 20260507143056 | 5 | 280 | 0.0 | 4.8 | 0.00 | 0.00 | 0.00 | 81 | 1005.8 |
| 20260507141550 | 5 | 271 | 0.0 | 9.7 | 0.00 | 0.00 | 0.00 | 82 | 1005.9 |
| 20260507140049 | 5 | 305 | 0.0 | 3.2 | 0.00 | 0.00 | 0.00 | 79 | 1005.7 |
| 20260507134548 | 4 | 305 | 0.0 | 8.0 | 0.00 | 0.00 | 0.00 | 83 | 1005.7 |
| 20260507133050 | 5 | 304 | 0.0 | 3.2 | 0.00 | 0.00 | 0.00 | 87 | 1005.6 |
| 20260507131542 | 4 | 295 | 0.0 | 3.2 | 0.00 | 0.00 | 0.00 | 92 | 1005.8 |
| 20260507130042 | 3 | 305 | 0.0 | 8.0 | 0.00 | 0.00 | 0.00 | 95 | 1006.0 |
| 20260507124545 | 3 | 288 | 0.0 | 0.0 | 0.00 | 0.00 | 0.00 | 95 | 1005.9 |
| 20260507123036 | 3 | 330 | 0.0 | 0.0 | 0.00 | 0.00 | 0.00 | 96 | 1005.9 |
| 20260507121534 | 3 | 301 | 0.0 | 0.0 | 0.00 | 0.00 | 0.00 | 96 | 1005.8 |
| 20260507120035 | 3 | 306 | 0.0 | 0.0 | 0.00 | 0.00 | 0.00 | 96 | 1005.8 |
| 20260507114554 | 3 | 304 | 0.0 | 0.0 | 0.00 | 0.00 | 0.00 | 96 | 1005.7 |
| 20260507113058 | 3 | 304 | 0.0 | 0.0 | 0.00 | 0.00 | 0.00 | 96 | 1005.7 |
| 20260507111540 | 3 | 304 | 0.0 | 0.0 | 0.00 | 0.00 | 0.00 | 96 | 1005.6 |
| 20260507110034 | 3 | 309 | 0.0 | 0.0 | 0.00 | 0.00 | 0.00 | 96 | 1005.6 |
| 20260507104540 | 3 | 309 | 0.0 | 0.0 | 0.00 | 0.00 | 0.00 | 96 | 1005.7 |
| 20260507103031 | 2 | 309 | 0.0 | 0.0 | 0.00 | 0.00 | 0.00 | 96 | 1005.6 |
| 20260507101530 | 2 | 308 | 0.0 | 0.0 | 0.00 | 0.00 | 0.00 | 96 | 1005.6 |
| 20260507100030 | 2 | 323 | 0.0 | 0.0 | 0.00 | 0.00 | 0.00 | 95 | 1005.3 |
| 20260507094532 | 2 | 300 | 0.0 | 0.0 | 0.00 | 0.00 | 0.00 | 96 | 1005.6 |
| 20260507093034 | 2 | 299 | 0.0 | 0.0 | 0.00 | 0.00 | 0.00 | 95 | 1005.4 |
| 20260507091528 | 2 | 313 | 0.0 | 0.0 | 0.00 | 0.00 | 0.00 | 95 | 1005.1 |
| 20260507090027 | 2 | 297 | 0.0 | 0.0 | 0.00 | 0.00 | 0.00 | 95 | 1005.2 |
| 20260507084539 | 3 | 300 | 0.0 | 1.6 | 0.00 | 0.00 | 0.00 | 95 | 1005.5 |
| 20260507083026 | 3 | 288 | 0.0 | 9.7 | 0.00 | 0.00 | 0.00 | 95 | 1005.5 |
| 20260507081534 | 3 | 300 | 0.0 | 1.6 | 0.00 | 0.00 | 0.00 | 96 | 1005.4 |
| 20260507080027 | 2 | 287 | 0.0 | 0.0 | 0.00 | 0.00 | 0.00 | 95 | 1005.3 |
| 20260507074528 | 2 | 286 | 0.0 | 0.0 | 0.00 | 0.00 | 0.00 | 95 | 1005.4 |
| 20260507073026 | 2 | 293 | 0.0 | 0.0 | 0.00 | 0.00 | 0.00 | 96 | 1005.3 |
| 20260507071525 | 2 | 305 | 0.0 | 0.0 | 0.00 | 0.00 | 0.00 | 96 | 1005.1 |
| 20260507070025 | 2 | 299 | 0.0 | 0.0 | 0.00 | 0.00 | 0.00 | 96 | 1004.9 |
| 20260507064524 | 2 | 299 | 0.0 | 0.0 | 0.00 | 0.00 | 0.00 | 97 | 1005.0 |
| 20260507063027 | 2 | 291 | 0.0 | 0.0 | 0.00 | 0.00 | 0.00 | 97 | 1005.0 |
| 20260507061523 | 2 | 290 | 0.0 | 0.0 | 0.00 | 0.00 | 0.00 | 96 | 1005.2 |
| 20260507060022 | 2 | 302 | 0.0 | 0.0 | 0.00 | 0.00 | 0.00 | 96 | 1005.1 |
| 20260507054521 | 2 | 292 | 0.0 | 0.0 | 0.00 | 0.00 | 0.00 | 97 | 1005.0 |
| 20260507053019 | 3 | 307 | 0.0 | 0.0 | 0.00 | 0.00 | 0.00 | 97 | 1005.2 |
| 20260507051516 | 3 | 307 | 0.0 | 0.0 | 0.00 | 0.00 | 0.00 | 97 | 1005.8 |
| 20260507050025 | 3 | 294 | 0.0 | 0.0 | 0.00 | 0.00 | 0.00 | 97 | 1005.8 |
| 20260507044515 | 3 | 310 | 0.0 | 0.0 | 0.00 | 0.00 | 0.00 | 97 | 1006.0 |
| 20260507043021 | 3 | 309 | 0.0 | 0.0 | 0.00 | 0.00 | 0.00 | 97 | 1005.7 |
| 20260507041513 | 3 | 309 | 0.0 | 0.0 | 0.00 | 0.00 | 0.00 | 97 | 1005.8 |
| 20260507040010 | 3 | 308 | 0.0 | 0.0 | 0.00 | 0.00 | 0.00 | 97 | 1005.9 |
| 20260507034520 | 4 | 323 | 0.0 | 0.0 | 0.00 | 0.00 | 0.00 | 97 | 1006.0 |
| 20260507033010 | 4 | 304 | 0.0 | 0.0 | 0.00 | 0.00 | 0.00 | 97 | 1006.0 |
| 20260507031509 | 4 | 296 | 0.0 | 0.0 | 0.00 | 0.00 | 0.00 | 97 | 1005.8 |
| 20260507030010 | 4 | 293 | 0.0 | 0.0 | 0.00 | 0.00 | 0.00 | 97 | 1005.8 |
| 20260507024514 | 4 | 293 | 0.0 | 0.0 | 0.00 | 0.00 | 0.00 | 97 | 1005.7 |
| 20260507023009 | 4 | 329 | 0.0 | 0.0 | 0.00 | 0.00 | 0.00 | 97 | 1005.9 |
| 20260507021510 | 4 | 325 | 0.0 | 0.0 | 0.00 | 0.00 | 0.00 | 96 | 1006.0 |
| 20260507020013 | 4 | 282 | 0.0 | 0.0 | 0.00 | 0.00 | 0.00 | 97 | 1006.1 |
| 20260507014510 | 4 | 280 | 0.0 | 0.0 | 0.00 | 0.00 | 0.00 | 97 | 1006.2 |
| 20260507013008 | 4 | 318 | 0.0 | 0.0 | 0.00 | 0.00 | 0.00 | 97 | 1006.0 |
| 20260507011512 | 4 | 312 | 0.0 | 0.0 | 0.00 | 0.00 | 0.00 | 96 | 1005.9 |
| 20260507010010 | 4 | 292 | 0.0 | 0.0 | 0.00 | 0.00 | 0.00 | 97 | 1005.8 |
| 20260507004509 | 4 | 318 | 0.0 | 0.0 | 0.00 | 0.00 | 0.00 | 96 | 1005.3 |
| 20260507003007 | 4 | 294 | 0.0 | 0.0 | 0.00 | 0.00 | 0.00 | 96 | 1005.0 |
| 20260507001525 | 5 | 294 | 0.0 | 0.0 | 0.00 | 0.00 | 0.00 | 96 | 1004.9 |
| 20260507000013 | 4 | 292 | 0.0 | 0.0 | 0.00 | 0.00 | 0.00 | 96 | 1004.6 |
| 20260506234507 | 4 | 302 | 0.0 | 0.0 | 0.00 | 0.00 | 0.00 | 96 | 1004.2 |
| 20260506233007 | 4 | 296 | 0.0 | 0.0 | 0.00 | 0.00 | 0.00 | 96 | 1004.4 |
| 20260506231506 | 5 | 305 | 0.0 | 0.0 | 0.00 | 0.00 | 0.00 | 96 | 1004.4 |
| 20260506230005 | 5 | 302 | 0.0 | 0.0 | 0.00 | 0.00 | 0.00 | 96 | 1004.2 |
| 20260506224505 | 5 | 295 | 0.0 | 0.0 | 0.00 | 0.00 | 0.00 | 96 | 1004.2 |
| 20260506223004 | 5 | 273 | 0.0 | 0.0 | 0.00 | 0.00 | 0.00 | 96 | 1004.0 |
| 20260506221505 | 5 | 329 | 0.0 | 0.0 | 0.00 | 0.00 | 0.00 | 96 | 1004.2 |
| 20260506220005 | 5 | 325 | 0.0 | 0.0 | 0.00 | 0.00 | 0.00 | 96 | 1004.1 |
| 20260506214504 | 4 | 299 | 0.0 | 0.0 | 0.00 | 0.00 | 0.00 | 96 | 1004.0 |
| 20260506213004 | 4 | 289 | 0.0 | 0.0 | 0.00 | 0.00 | 0.00 | 96 | 1004.0 |
| 20260506211502 | 4 | 265 | 0.0 | 0.0 | 0.00 | 0.00 | 0.00 | 96 | 1004.1 |
| 20260506210004 | 4 | 288 | 0.0 | 0.0 | 0.00 | 0.00 | 0.00 | 96 | 1004.0 |
| 20260506204603 | 5 | 294 | 0.0 | 0.0 | 0.00 | 0.00 | 0.00 | 96 | 1003.8 |
| 20260506204501 | 5 | 294 | 0.0 | 0.0 | 0.00 | 0.00 | 0.00 | 95 | 1003.8 |
| 20260506203122 | 5 | 287 | 0.0 | 0.0 | 0.00 | 0.00 | 0.00 | 96 | 1003.6 |
| 20260506201600 | 5 | 284 | 0.0 | 0.0 | 0.00 | 0.00 | 0.00 | 95 | 1003.5 |
| 20260506194605 | 5 | 278 | 0.0 | 0.0 | 0.00 | 0.00 | 0.00 | 95 | 1003.4 |
| 20260506193106 | 5 | 306 | 0.0 | 0.0 | 0.00 | 0.00 | 0.00 | 96 | 1003.4 |
| 20260506191558 | 5 | 279 | 0.0 | 0.0 | 0.00 | 0.00 | 0.00 | 96 | 1003.4 |
| 20260506190057 | 5 | 275 | 0.0 | 0.0 | 0.00 | 0.00 | 0.00 | 96 | 1003.5 |
| 20260506184557 | 5 | 270 | 0.0 | 1.6 | 0.00 | 0.00 | 0.00 | 96 | 1003.6 |
| 20260506183104 | 5 | 258 | 0.0 | 0.0 | 0.00 | 0.00 | 0.00 | 96 | 1003.6 |
| 20260506181558 | 5 | 307 | 0.0 | 1.6 | 0.00 | 0.00 | 0.00 | 96 | 1004.0 |
| 20260506180055 | 5 | 290 | 0.0 | 0.0 | 0.00 | 0.00 | 0.00 | 96 | 1003.8 |
| 20260506174554 | 4 | 296 | 0.0 | 0.0 | 0.00 | 0.00 | 0.00 | 96 | 1004.1 |
| 20260506173059 | 4 | 248 | 0.0 | 0.0 | 0.00 | 0.00 | 0.00 | 96 | 1004.1 |